EW3197 Weather Reports


Display with metric or nautical units.
time (UTC)temp
F
wind
direction
speed
MPH
gust
MPH
rain 1hr
in
rain 24hr
in
rain mn
in
humidity
%
barometer
mb
20260904024204 70 302 0.0 0.0 0.00 0.19 0.19 90 1012.2
20260904023704 69 302 0.0 0.0 0.00 0.19 0.19 90 1012.2
20260904023204 69 302 0.0 0.0 0.00 0.19 0.19 90 1012.2
20260904022203 69 302 0.0 0.0 0.00 0.19 0.19 90 1012.2
20260904021703 69 302 0.0 0.0 0.00 0.19 0.19 90 1012.3
20260904021204 69 302 0.0 0.0 0.00 0.19 0.19 90 1012.4
20260904020204 69 302 0.0 0.0 0.00 0.19 0.19 89 1012.2
20260904015704 69 302 0.0 0.0 0.00 0.19 0.19 89 1012.2
20260904015203 69 302 0.0 0.0 0.00 0.19 0.19 89 1012.3
20260904014704 69 302 0.0 0.0 0.00 0.19 0.19 89 1012.3
20260904014204 69 302 0.0 0.0 0.00 0.19 0.19 89 1012.4
20260904013204 70 302 0.0 0.0 0.00 0.19 0.19 89 1012.3
20260904012204 70 302 0.0 0.0 0.00 0.19 0.19 89 1012.4
20260904011704 70 302 0.0 0.0 0.00 0.19 0.19 89 1012.4
20260904011204 70 302 0.0 0.0 0.00 0.19 0.19 88 1012.4
20260904010204 71 302 0.0 0.0 0.00 0.19 0.19 88 1012.3
20260904005704 71 302 0.0 0.0 0.00 0.19 0.19 88 1012.2
20260904004704 71 302 0.0 0.0 0.00 0.19 0.19 88 1012.0
20260904004204 71 302 0.0 0.0 0.00 0.19 0.19 88 1012.0
20260904003704 71 302 0.0 0.0 0.00 0.19 0.19 88 1012.0
20260904003204 71 302 0.0 0.0 0.00 0.19 0.19 88 1012.1
20260904002704 72 302 0.0 0.0 0.00 0.19 0.19 88 1012.1
20260904002204 72 302 0.0 0.0 0.00 0.19 0.19 88 1012.0
20260904001704 72 302 0.0 0.0 0.00 0.19 0.19 87 1012.2
20260904001203 72 302 0.0 0.0 0.00 0.19 0.19 87 1012.3
20260904000704 72 302 0.0 0.0 0.00 0.19 0.19 87 1012.1
20260903235704 72 302 0.0 0.0 0.00 0.19 0.19 87 1011.7
20260903235204 73 302 0.0 0.0 0.00 0.19 0.19 87 1011.6
20260903234704 73 302 0.0 0.0 0.00 0.19 0.19 87 1011.6
20260903234204 73 302 0.0 0.0 0.00 0.19 0.19 86 1011.5
20260903233205 74 302 0.0 0.0 0.00 0.19 0.19 86 1011.4
20260903232704 74 302 0.0 0.0 0.00 0.19 0.19 86 1011.4
20260903232205 74 302 0.0 0.0 0.00 0.19 0.19 85 1011.4
20260903231703 75 302 0.0 0.0 0.00 0.19 0.19 85 1011.4
20260903231204 75 302 0.0 0.0 0.00 0.19 0.19 85 1011.6
20260903230704 75 302 0.0 0.0 0.00 0.19 0.19 85 1011.6
20260903230204 75 302 0.0 0.0 0.00 0.19 0.19 84 1011.5
20260903225704 76 302 0.0 0.0 0.00 0.19 0.19 84 1011.6
20260903225204 76 302 0.0 0.0 0.00 0.19 0.19 84 1011.3
20260903224704 76 302 0.0 0.0 0.00 0.19 0.19 84 1011.3
20260903223704 77 302 0.0 0.0 0.00 0.19 0.19 83 1011.2
20260903223204 77 302 0.0 0.0 0.00 0.19 0.19 82 1011.2
20260903222704 77 302 0.0 0.0 0.00 0.19 0.19 82 1011.1
20260903222204 78 302 0.0 0.0 0.00 0.19 0.19 81 1011.1
20260903221204 79 302 0.0 3.0 0.00 0.19 0.19 76 1011.3
20260903220704 80 305 1.0 2.0 0.00 0.19 0.19 75 1011.3
20260903220204 80 305 1.0 2.0 0.00 0.19 0.19 74 1011.3
20260903215704 80 305 1.0 2.0 0.00 0.19 0.19 73 1011.3
20260903215205 81 305 1.0 3.0 0.00 0.19 0.19 73 1011.3
20260903214704 81 314 1.0 2.0 0.00 0.19 0.19 72 1011.3
20260903213704 81 314 2.0 5.0 0.00 0.19 0.19 72 1011.3
20260903213204 81 309 1.0 3.0 0.00 0.19 0.19 72 1011.3
20260903212204 81 325 2.0 3.0 0.00 0.19 0.19 71 1011.3
20260903211204 82 329 1.0 3.0 0.00 0.19 0.19 71 1011.2
20260903210704 82 321 1.0 3.0 0.00 0.19 0.19 70 1011.5
20260903210204 83 322 1.0 3.0 0.00 0.19 0.19 73 1011.4
20260903205704 83 237 1.0 3.0 0.00 0.19 0.19 71 1011.5
20260903205204 82 226 0.0 3.0 0.00 0.19 0.19 71 1011.5
20260903204704 82 265 1.0 3.0 0.00 0.19 0.19 69 1011.5
20260903204204 83 207 2.0 3.0 0.00 0.19 0.19 69 1011.4
20260903203703 83 252 2.0 3.0 0.00 0.19 0.19 71 1011.4
20260903203205 82 320 2.0 3.0 0.00 0.19 0.19 71 1011.4
20260903202704 82 220 1.0 2.0 0.00 0.19 0.19 70 1011.4
20260903202204 82 219 2.0 3.0 0.00 0.19 0.19 70 1011.3
20260903201704 82 260 1.0 3.0 0.00 0.19 0.19 73 1011.4
20260903201204 81 268 1.0 2.0 0.00 0.19 0.19 74 1011.4
20260903200704 80 268 1.0 3.0 0.00 0.19 0.19 74 1011.4
20260903200204 80 269 0.0 2.0 0.00 0.19 0.19 76 1011.4
20260903195704 79 269 0.0 2.0 0.00 0.19 0.19 76 1011.5
20260903195204 80 269 2.0 3.0 0.00 0.19 0.19 74 1011.4
20260903194706 80 269 1.0 2.0 0.00 0.19 0.19 75 1011.5
20260903194204 80 269 0.0 2.0 0.00 0.19 0.19 75 1011.5
20260903193704 81 269 0.0 3.0 0.00 0.19 0.19 74 1011.6
20260903193204 81 246 1.0 3.0 0.00 0.19 0.19 74 1011.7
20260903192704 80 232 0.0 1.0 0.00 0.19 0.19 75 1011.7
20260903192204 80 232 1.0 2.0 0.00 0.19 0.19 73 1011.8
20260903191704 81 232 2.0 3.0 0.00 0.19 0.19 73 1011.9
20260903190704 82 232 1.0 2.0 0.00 0.19 0.19 72 1011.9
20260903190204 81 232 1.0 3.0 0.00 0.19 0.19 74 1012.0
20260903185204 81 318 2.0 5.0 0.00 0.19 0.19 74 1012.0
20260903184704 80 249 1.0 3.0 0.00 0.19 0.19 75 1012.1
20260903183703 80 280 2.0 3.0 0.00 0.19 0.19 76 1012.2
20260903183204 79 237 2.0 6.0 0.00 0.19 0.19 76 1012.2
20260903182704 79 214 2.0 5.0 0.00 0.19 0.19 76 1012.4
20260903182204 79 178 2.0 5.0 0.00 0.19 0.19 76 1012.3
20260903181704 79 203 2.0 3.0 0.00 0.19 0.19 76 1012.4
20260903181204 79 280 1.0 3.0 0.00 0.19 0.19 77 1012.3
20260903180704 79 257 1.0 6.0 0.00 0.19 0.19 76 1012.3
20260903180204 79 240 1.0 3.0 0.00 0.19 0.19 75 1012.3
20260903175704 79 255 3.0 3.0 0.00 0.19 0.19 76 1012.5
20260903175204 79 249 0.0 3.0 0.00 0.19 0.19 77 1012.4
20260903174704 79 224 2.0 3.0 0.00 0.19 0.19 76 1012.4
20260903174204 79 222 2.0 6.0 0.00 0.19 0.19 76 1012.5
20260903173704 79 251 2.0 7.0 0.00 0.19 0.19 75 1012.5
20260903173204 80 225 2.0 3.0 0.00 0.19 0.19 74 1012.5
20260903172204 79 213 2.0 3.0 0.00 0.19 0.19 76 1012.7
20260903171704 78 239 1.0 3.0 0.00 0.19 0.19 77 1012.7
20260903171203 77 239 1.0 3.0 0.00 0.19 0.19 78 1012.8
20260903170705 77 236 1.0 3.0 0.00 0.19 0.19 79 1012.9
20260903170204 77 242 1.0 2.0 0.00 0.19 0.19 78 1012.9
20260903165704 77 242 1.0 3.0 0.00 0.19 0.19 78 1012.9
20260903164704 78 244 1.0 3.0 0.00 0.19 0.19 76 1012.9
20260903164204 78 243 2.0 5.0 0.00 0.19 0.19 76 1012.8
20260903163704 78 183 1.0 3.0 0.00 0.19 0.19 76 1012.7
20260903163204 78 256 1.0 3.0 0.00 0.19 0.19 77 1012.7
20260903162704 78 254 2.0 3.0 0.00 0.19 0.19 77 1012.8
20260903162204 77 255 1.0 2.0 0.00 0.19 0.19 78 1013.0
20260903161204 76 253 1.0 3.0 0.00 0.19 0.19 78 1013.2
20260903160204 76 241 1.0 5.0 0.00 0.19 0.19 79 1013.4
20260903155704 76 231 2.0 3.0 0.00 0.19 0.19 79 1013.3
20260903155205 75 232 1.0 2.0 0.00 0.19 0.19 80 1013.3
20260903154203 75 232 1.0 3.0 0.00 0.19 0.19 81 1013.2
20260903153704 75 232 1.0 3.0 0.00 0.19 0.19 81 1013.3
20260903153204 75 232 2.0 3.0 0.00 0.19 0.19 82 1013.4
20260903152204 74 232 2.0 3.0 0.00 0.19 0.19 82 1013.4
20260903151204 73 232 1.0 2.0 0.00 0.19 0.19 83 1013.6
20260903150704 73 232 1.0 2.0 0.00 0.19 0.19 83 1013.6
20260903150204 73 232 1.0 3.0 0.00 0.19 0.19 83 1013.5
20260903145704 73 232 0.0 2.0 0.00 0.19 0.19 83 1013.5
20260903145204 73 232 0.0 2.0 0.00 0.19 0.19 84 1013.5
20260903144704 72 232 2.0 3.0 0.00 0.19 0.19 84 1013.5
20260903144203 72 232 1.0 3.0 0.00 0.19 0.19 85 1013.7
20260903143704 72 232 1.0 2.0 0.00 0.19 0.19 84 1013.7
20260903143205 72 232 1.0 2.0 0.00 0.19 0.19 85 1013.6
20260903142704 72 232 0.0 2.0 0.00 0.19 0.19 86 1013.6
20260903142204 71 232 1.0 2.0 0.00 0.19 0.19 85 1013.5
20260903141705 71 232 1.0 2.0 0.00 0.19 0.19 85 1013.5
20260903141204 71 232 2.0 3.0 0.00 0.19 0.19 87 1013.5
20260903140704 71 232 1.0 2.0 0.00 0.19 0.19 87 1013.4
20260903140204 71 232 1.0 2.0 0.00 0.19 0.19 88 1013.5
20260903135204 70 232 0.0 2.0 0.00 0.19 0.19 89 1013.5
20260903134704 70 232 1.0 3.0 0.00 0.19 0.19 90 1013.5
20260903133704 70 232 0.0 0.0 0.00 0.19 0.19 91 1013.5
20260903133204 70 232 0.0 1.0 0.00 0.19 0.19 90 1013.5
20260903132704 70 232 0.0 1.0 0.00 0.19 0.19 91 1013.5
20260903132204 69 232 0.0 2.0 0.00 0.19 0.19 91 1013.4
20260903131705 69 232 0.0 2.0 0.00 0.19 0.19 91 1013.5
20260903131204 69 232 1.0 3.0 0.00 0.19 0.19 91 1013.7
20260903130705 69 232 1.0 3.0 0.00 0.19 0.19 91 1013.8
20260903130204 69 232 1.0 3.0 0.00 0.19 0.19 91 1013.8
20260903125704 69 232 0.0 1.0 0.00 0.19 0.19 91 1013.9
20260903125204 68 232 0.0 0.0 0.00 0.19 0.19 91 1013.9
20260903124703 68 232 0.0 1.0 0.00 0.19 0.19 91 1013.8
20260903124204 68 232 0.0 1.0 0.00 0.19 0.19 91 1013.9
20260903123705 68 232 0.0 1.0 0.00 0.19 0.19 91 1013.9
20260903122704 68 232 0.0 0.0 0.00 0.19 0.19 91 1014.1
20260903122204 68 232 0.0 1.0 0.01 0.19 0.19 91 1014.0
20260903121704 68 232 0.0 0.0 0.01 0.19 0.19 91 1014.1
20260903121205 68 232 0.0 0.0 0.01 0.19 0.19 91 1014.2
20260903120704 67 232 0.0 0.0 0.01 0.19 0.19 91 1014.2
20260903120204 67 232 0.0 0.0 0.01 0.19 0.19 91 1014.3
20260903115705 67 232 0.0 0.0 0.01 0.19 0.19 91 1014.4
20260903114705 67 232 0.0 1.0 0.01 0.19 0.19 91 1014.4
20260903113704 67 232 0.0 0.0 0.01 0.19 0.19 91 1014.4
20260903113204 67 232 0.0 0.0 0.01 0.19 0.19 91 1014.4
20260903112705 67 232 0.0 0.0 0.01 0.19 0.19 91 1014.5
20260903112204 67 232 0.0 1.0 0.00 0.18 0.18 91 1014.6
20260903111704 67 232 0.0 0.0 0.00 0.18 0.18 91 1014.7
20260903111204 67 232 0.0 0.0 0.00 0.18 0.18 91 1014.7
20260903110203 67 232 0.0 0.0 0.00 0.18 0.18 91 1014.7
20260903105203 67 232 0.0 1.0 0.00 0.18 0.18 91 1014.8
20260903104703 67 232 0.0 0.0 0.00 0.18 0.18 91 1014.8
20260903104204 67 232 0.0 0.0 0.00 0.18 0.18 91 1014.8
20260903103705 67 232 0.0 1.0 0.00 0.18 0.18 91 1014.6
20260903103203 67 232 0.0 0.0 0.00 0.18 0.18 91 1014.4
20260903102204 67 232 0.0 1.0 0.00 0.18 0.18 91 1014.2
20260903101704 67 232 0.0 0.0 0.00 0.18 0.18 91 1014.2
20260903101204 67 232 0.0 0.0 0.00 0.18 0.18 91 1014.2
20260903100704 67 232 0.0 0.0 0.00 0.18 0.18 91 1014.1
20260903100204 67 232 0.0 0.0 0.00 0.18 0.18 91 1014.3
20260903095703 67 232 0.0 0.0 0.00 0.18 0.18 90 1014.2
20260903095204 67 232 0.0 0.0 0.00 0.18 0.18 91 1014.2
20260903094704 67 232 0.0 0.0 0.00 0.18 0.18 91 1014.2
20260903094203 67 232 0.0 0.0 0.00 0.18 0.18 91 1014.2
20260903093704 67 232 0.0 0.0 0.00 0.18 0.18 91 1014.1
20260903093203 67 232 0.0 0.0 0.00 0.18 0.18 90 1013.9
20260903092704 67 232 0.0 0.0 0.00 0.18 0.18 90 1014.0
20260903092204 67 232 0.0 0.0 0.00 0.18 0.18 90 1014.1
20260903091204 67 232 0.0 1.0 0.00 0.18 0.18 90 1014.2
20260903090704 67 232 0.0 0.0 0.00 0.18 0.18 90 1014.2
20260903090203 67 232 0.0 0.0 0.00 0.18 0.18 90 1014.1
20260903085703 67 232 0.0 0.0 0.00 0.18 0.18 90 1014.2
20260903085204 67 232 0.0 0.0 0.00 0.18 0.18 90 1014.4
20260903084703 67 232 0.0 0.0 0.00 0.18 0.18 90 1014.4
20260903084204 67 232 0.0 1.0 0.00 0.18 0.18 90 1014.4
20260903083704 66 232 0.0 1.0 0.00 0.18 0.18 90 1014.4
20260903083203 66 232 0.0 1.0 0.00 0.18 0.18 90 1014.5
20260903082703 66 232 0.0 2.0 0.00 0.18 0.18 90 1014.6
20260903082203 66 232 0.0 1.0 0.00 0.18 0.18 90 1014.6
20260903081703 66 232 0.0 1.0 0.00 0.18 0.18 90 1014.6
20260903081203 66 233 1.0 3.0 0.00 0.18 0.18 90 1014.6
20260903080704 66 245 0.0 1.0 0.00 0.18 0.18 90 1014.5
20260903080203 66 245 0.0 3.0 0.00 0.18 0.18 90 1014.5
20260903075703 66 244 0.0 1.0 0.00 0.18 0.18 90 1014.4
20260903075205 66 244 1.0 2.0 0.00 0.18 0.18 90 1014.4
20260903074704 66 245 0.0 2.0 0.00 0.18 0.18 90 1014.4
20260903074204 66 245 0.0 2.0 0.00 0.18 0.18 90 1014.4
20260903073703 66 245 0.0 1.0 0.00 0.18 0.18 90 1014.5
20260903073204 66 245 0.0 1.0 0.00 0.18 0.18 90 1014.6
20260903072703 66 245 1.0 3.0 0.00 0.18 0.18 90 1014.8
20260903072203 66 245 1.0 2.0 0.00 0.18 0.18 90 1014.8
20260903071705 65 245 0.0 1.0 0.00 0.18 0.18 90 1014.7
20260903071204 65 245 0.0 1.0 0.00 0.18 0.18 90 1014.6
20260903070203 65 245 0.0 1.0 0.00 0.18 0.18 90 1014.7
20260903065704 65 245 0.0 1.0 0.00 0.18 0.18 90 1014.7
20260903065204 65 245 0.0 1.0 0.00 0.18 0.18 90 1014.7
20260903064704 65 245 1.0 2.0 0.00 0.18 0.18 90 1014.7
20260903063705 65 120 0.0 0.0 0.01 0.19 0.18 90 1014.5
20260903063204 65 120 0.0 0.0 0.02 0.19 0.18 89 1014.7
20260903062704 65 120 0.0 0.0 0.03 0.19 0.18 89 1014.8
20260903062204 65 120 0.0 0.0 0.05 0.19 0.18 89 1014.9
20260903061703 65 120 0.0 1.0 0.06 0.19 0.18 89 1015.1
20260903061204 65 120 0.0 1.0 0.07 0.19 0.18 89 1015.1
20260903060704 65 119 1.0 2.0 0.08 0.19 0.18 89 1015.3
20260903060204 64 118 0.0 1.0 0.08 0.19 0.18 89 1015.2
20260903055704 64 118 0.0 0.0 0.09 0.19 0.18 89 1015.4
20260903054703 64 118 0.0 2.0 0.11 0.19 0.18 89 1015.5
20260903054205 64 118 1.0 2.0 0.12 0.18 0.17 89 1015.7
20260903053204 64 122 0.0 1.0 0.14 0.17 0.16 88 1015.9
20260903052204 64 122 1.0 2.0 0.13 0.14 0.13 88 1016.2
20260903051703 64 131 1.0 2.0 0.12 0.13 0.12 88 1016.3
20260903050704 64 166 0.0 2.0 0.10 0.11 0.10 87 1016.5
20260903050204 64 166 0.0 1.0 0.10 0.11 0.10 87 1016.7
20260903045705 64 166 0.0 1.0 0.08 0.10 0.09 87 1017.0
20260903045203 64 166 0.0 0.0 0.07 0.09 0.08 87 1017.1
20260903044704 64 166 0.0 0.0 0.06 0.08 0.07 86 1017.2
20260903044204 65 166 0.0 1.0 0.04 0.06 0.05 86 1017.4
20260903043704 65 166 0.0 1.0 0.02 0.04 0.03 85 1017.4
20260903043204 65 167 0.0 1.0 0.01 0.03 0.02 85 1017.6
20260903042204 65 167 0.0 5.0 0.00 0.01 0.00 83 1017.5
20260903041204 65 224 0.0 2.0 0.00 0.01 0.00 83 1017.5
20260903040704 65 225 0.0 1.0 0.00 0.01 0.00 83 1017.6
20260903035705 65 225 0.0 1.0 0.00 0.01 0.01 82 1017.6
20260903035204 65 225 0.0 1.0 0.00 0.01 0.01 82 1017.5
20260903034705 65 225 1.0 3.0 0.00 0.01 0.01 82 1017.4
20260903034204 65 225 0.0 1.0 0.00 0.01 0.01 81 1017.4
20260903033704 65 225 0.0 1.0 0.00 0.01 0.01 81 1017.3
20260903033204 65 225 0.0 0.0 0.00 0.01 0.01 81 1017.4
20260903032704 65 225 0.0 1.0 0.00 0.01 0.01 81 1017.6
20260903032204 65 225 0.0 2.0 0.00 0.01 0.01 81 1017.4
20260903031704 65 225 0.0 1.0 0.00 0.01 0.01 82 1017.5
20260903031205 65 225 0.0 2.0 0.00 0.01 0.01 82 1017.3
20260903030704 65 225 1.0 2.0 0.00 0.01 0.01 82 1017.0
20260903025704 65 222 1.0 2.0 0.00 0.01 0.01 82 1017.2
20260903025204 65 222 0.0 0.0 0.00 0.01 0.01 82 1017.2
20260903024704 65 222 0.0 1.0 0.00 0.01 0.01 83 1017.4